星链-4088 (STARLINK-4088 )

导读

STARLINK-4088是美国SpaceX公司星链(Starlink)项目的低轨通信卫星,于2022年7月17日发射入轨。星链计划旨在通过近地轨道卫星群,为全球提供高速低延迟互联网接入,尤其覆盖偏远地区。该卫星采用平板设计,搭载氪工质霍尔推进器,具备自主避撞能力,寿命末期会主动离轨再入大气层烧毁,减少太空垃圾影响。

Basic Information
目录编号:
53155
目录名称:
STARLINK-4088
国际标识:
2022-083Z
轨道中心:
EARTH
卫星名称:
星链-4088
卫星全名:
星链-4088 (STARLINK-4088 )
卫星状态:
在轨 (已飞行1431 天)
发射日期:
2022-07-17 UTC
国别 :
美国 (US)
星等 :
--
Orbit Information
数据来源 国际轨道数据 AOE轨道数据
星历时间 2026-06-17T08:24:54+0800
14小时前
查看轨道信息
2026-06-16T23:00:00+0800
1天前
查看轨道信息
半长轴 6917.893km 6917.904km
偏心率 0.0001328 0.0001203
轨道倾角 53.160° 53.161°
近地点辐角 87.906° 95.957°
升交点赤经 78.128° 79.892°
平近点角 272.209° 292.114°
近地点 538.837km 538.934km
远地点 540.675km 540.6km
周期 95.438分钟 95.438分钟
每日圈数 15.088359 15.088324
Detailed Information
固有亮度:
5
最大亮度:
2.5
卫星平台:
Starlink v1.5
覆盖范围:
全球
运营商:
太空探索技术公司
运营商所在国:
美国
制造商(研发单位):
太空探索技术公司
制造商所在国:
美国
使用方式:
暂无
Satellite Introduction
星链(Starlink)计划是由太空探索技术公司(SpaceX)提出的一个巨型低轨卫星互联网星座项目,计划在2019年至2024年间在太空搭建由约1.2万颗卫星组成的“星链”网络,其中1584颗将部署在地球上空550千米处的近地轨道,并从2020年开始工作。该卫星仍在工作。
2D Orbit Map
3D Orbit Map
Orbit Altitude Analysis Chart
Orbit Inclination Analysis Chart
Orbit Comprehensive Analysis Chart
View Comprehensive Chart